EW6135 Weather Reports


Display with metric or nautical units.
time (UTC)temp
F
wind
direction
speed
MPH
gust
MPH
rain 1hr
in
rain 24hr
in
rain mn
in
humidity
%
barometer
mb
20260905161039 91 43 4.0 10.0 0.00 0.02 0.01 76 1011.1
20260905160537 91 250 2.0 6.0 0.00 0.02 0.01 74 1011.2
20260905160037 91 350 1.0 5.0 0.00 0.02 0.01 74 1011.2
20260905155535 92 234 1.0 5.0 0.00 0.02 0.01 74 1011.2
20260905155036 92 78 1.0 7.0 0.00 0.02 0.01 75 1011.2
20260905154537 92 213 3.0 7.0 0.00 0.02 0.01 73 1011.2
20260905154035 92 285 1.0 5.0 0.00 0.02 0.01 74 1011.2
20260905153534 92 258 0.0 5.0 0.00 0.02 0.01 75 1011.2
20260905153133 91 7 1.0 7.0 0.00 0.02 0.01 77 1011.3
20260905152531 91 6 2.0 7.0 0.00 0.02 0.01 76 1011.3
20260905152030 91 51 1.0 6.0 0.00 0.02 0.01 77 1011.2
20260905151529 90 233 1.0 6.0 0.00 0.02 0.01 76 1011.3
20260905151036 90 65 1.0 9.0 0.00 0.02 0.01 77 1011.4
20260905150528 90 244 2.0 9.0 0.00 0.02 0.01 78 1011.3
20260905150028 90 266 1.0 11.0 0.00 0.02 0.01 77 1011.2
20260905145528 90 258 4.0 11.0 0.00 0.02 0.01 77 1011.3
20260905145024 90 71 2.0 6.0 0.00 0.02 0.01 77 1011.3
20260905144525 89 246 2.0 6.0 0.00 0.02 0.01 77 1011.3
20260905144023 89 333 2.0 7.0 0.00 0.02 0.01 79 1011.3
20260905143524 89 264 3.0 8.0 0.00 0.02 0.01 77 1011.4
20260905143125 89 248 2.0 6.0 0.00 0.02 0.01 79 1011.3
20260905142524 89 243 0.0 5.0 0.00 0.02 0.01 79 1011.3
20260905142023 89 240 2.0 5.0 0.00 0.02 0.01 79 1011.4
20260905141522 89 181 0.0 5.0 0.00 0.02 0.01 80 1011.4
20260905141021 88 264 0.0 6.0 0.00 0.02 0.01 81 1011.4
20260905140521 88 222 3.0 6.0 0.00 0.02 0.01 80 1011.4
20260905140020 88 351 1.0 6.0 0.00 0.02 0.01 80 1011.4
20260905135519 88 261 0.0 5.0 0.00 0.02 0.01 82 1011.3
20260905135018 87 243 1.0 5.0 0.00 0.02 0.01 83 1011.4
20260905134519 87 248 0.0 3.0 0.00 0.02 0.01 83 1011.4
20260905134015 87 254 1.0 5.0 0.00 0.02 0.01 84 1011.4
20260905133513 86 244 1.0 5.0 0.00 0.02 0.01 84 1011.3
20260905133112 86 232 1.0 7.0 0.00 0.02 0.01 85 1011.4
20260905132511 85 218 1.0 7.0 0.00 0.02 0.01 86 1011.4
20260905132010 85 286 3.0 7.0 0.00 0.02 0.01 86 1011.4
20260905131516 85 264 1.0 5.0 0.00 0.02 0.01 87 1011.4
20260905131011 84 269 0.0 6.0 0.00 0.02 0.01 88 1011.4
20260905130507 83 265 2.0 6.0 0.00 0.02 0.01 88 1011.5
20260905130004 83 63 1.0 3.0 0.00 0.02 0.01 90 1011.5
20260905125504 82 250 1.0 4.0 0.00 0.02 0.01 90 1011.5
20260905125005 82 248 1.0 4.0 0.00 0.02 0.01 91 1011.5
20260905124502 81 257 0.0 5.0 0.00 0.02 0.01 93 1011.5
20260905124059 80 263 1.0 7.0 0.00 0.02 0.01 93 1011.4
20260905123558 80 255 1.0 7.0 0.00 0.02 0.01 94 1011.5
20260905123108 79 258 1.0 5.0 0.00 0.02 0.01 94 1011.5
20260905122601 79 261 1.0 5.0 0.00 0.02 0.01 95 1011.5
20260905122059 79 259 1.0 5.0 0.00 0.02 0.01 94 1011.5
20260905121559 79 286 1.0 6.0 0.00 0.02 0.01 94 1011.4
20260905121059 79 237 2.0 7.0 0.00 0.02 0.01 94 1011.4
20260905120559 79 278 3.0 8.0 0.00 0.02 0.01 94 1011.5
20260905120058 79 280 2.0 8.0 0.00 0.02 0.01 95 1011.5
20260905115556 78 257 2.0 5.0 0.00 0.02 0.01 95 1011.4
20260905115056 78 239 2.0 0.0 0.00 0.00 0.01 96 1011.5
20260905114554 77 247 2.0 4.0 0.00 0.02 0.01 97 1011.4
20260905114053 77 243 0.0 3.0 0.01 0.02 0.01 97 1011.4
20260905113552 76 243 1.0 3.0 0.01 0.02 0.01 98 1011.4
20260905113100 75 246 1.0 4.0 0.01 0.02 0.01 98 1011.4
20260905112552 75 255 0.0 4.0 0.01 0.02 0.01 98 1011.4
20260905112054 75 252 0.0 4.0 0.01 0.02 0.01 98 1011.3
20260905111557 75 281 0.0 4.0 0.01 0.02 0.01 98 1011.3
20260905111052 75 252 0.0 4.0 0.01 0.02 0.01 98 1011.1
20260905110550 74 253 0.0 3.0 0.01 0.02 0.01 98 1011.1
20260905110050 74 258 0.0 2.0 0.01 0.02 0.01 98 1011.2
20260905105550 74 248 0.0 2.0 0.01 0.02 0.01 98 1011.2
20260905105050 74 236 0.0 1.0 0.01 0.02 0.01 98 1011.1
20260905104550 74 236 0.0 1.0 0.01 0.02 0.01 97 1011.1
20260905104052 74 236 0.0 1.0 0.00 0.01 0.00 97 1011.2
20260905103550 74 236 0.0 1.0 0.00 0.01 0.00 97 1011.2
20260905103050 74 236 0.0 2.0 0.00 0.01 0.00 97 1011.0
20260905102549 74 236 0.0 2.0 0.00 0.01 0.00 97 1011.1
20260905102050 74 252 0.0 1.0 0.00 0.01 0.00 97 1011.0
20260905101604 74 288 0.0 1.0 0.00 0.01 0.00 97 1010.9
20260905101052 74 288 0.0 2.0 0.00 0.01 0.00 97 1010.9
20260905100550 74 288 0.0 2.0 0.00 0.01 0.00 97 1010.8
20260905100049 74 264 0.0 4.0 0.00 0.01 0.00 97 1010.9
20260905095548 74 248 1.0 4.0 0.00 0.02 0.00 97 1010.8
20260905095049 74 260 1.0 4.0 0.00 0.02 0.00 97 1010.8
20260905094550 74 269 0.0 2.0 0.00 0.02 0.00 97 1010.8
20260905094048 74 269 0.0 4.0 0.00 0.02 0.00 97 1010.8
20260905093548 74 231 1.0 4.0 0.00 0.02 0.00 97 1010.8
20260905093048 74 285 0.0 3.0 0.00 0.02 0.00 96 1010.8
20260905092545 74 286 0.0 3.0 0.00 0.02 0.00 96 1010.8
20260905092045 74 266 0.0 2.0 0.00 0.02 0.00 96 1010.9
20260905091547 74 266 0.0 3.0 0.00 0.02 0.00 96 1010.9
20260905091048 74 269 0.0 3.0 0.00 0.02 0.00 96 1010.9
20260905090546 74 273 0.0 3.0 0.00 0.02 0.00 96 1011.0
20260905090045 74 248 0.0 2.0 0.00 0.02 0.00 96 1011.0
20260905085544 74 219 0.0 2.0 0.00 0.02 0.00 95 1011.1
20260905085043 75 219 0.0 2.0 0.00 0.02 0.00 95 1011.0
20260905084600 75 266 0.0 1.0 0.00 0.02 0.00 95 1011.0
20260905084042 75 266 0.0 2.0 0.00 0.02 0.00 95 1011.0
20260905083542 75 266 0.0 2.0 0.00 0.02 0.00 95 1011.0
20260905083042 75 256 0.0 3.0 0.00 0.02 0.00 94 1011.1
20260905082542 75 256 0.0 3.0 0.00 0.02 0.00 94 1011.1
20260905082042 75 263 0.0 3.0 0.00 0.02 0.00 94 1011.0
20260905081541 75 260 1.0 4.0 0.00 0.02 0.00 94 1011.1
20260905081041 75 262 2.0 4.0 0.00 0.02 0.00 94 1011.0
20260905080540 75 245 1.0 4.0 0.00 0.02 0.00 94 1011.1
20260905080041 75 257 2.0 4.0 0.00 0.02 0.00 94 1011.1
20260905075544 75 254 1.0 3.0 0.00 0.02 0.00 94 1011.2
20260905075040 75 256 0.0 2.0 0.00 0.02 0.00 94 1011.3
20260905074540 75 292 1.0 3.0 0.00 0.02 0.00 94 1011.4
20260905074041 75 257 1.0 3.0 0.00 0.02 0.00 94 1011.4
20260905073541 75 266 1.0 5.0 0.00 0.02 0.00 93 1011.3
20260905073040 74 274 3.0 6.0 0.00 0.02 0.00 93 1011.1
20260905072541 74 266 2.0 6.0 0.00 0.02 0.00 93 1011.1
20260905072040 74 276 2.0 5.0 0.00 0.02 0.00 93 1011.1
20260905071540 74 263 0.0 3.0 0.00 0.02 0.00 93 1011.1
20260905071040 74 263 0.0 3.0 0.00 0.02 0.00 93 1011.2
20260905070540 74 259 1.0 3.0 0.00 0.02 0.00 93 1011.1
20260905070041 74 282 0.0 3.0 0.00 0.02 0.00 92 1011.1
20260905065542 74 261 1.0 5.0 0.00 0.02 0.00 92 1011.2
20260905065038 75 252 1.0 5.0 0.00 0.02 0.00 92 1011.2
20260905064540 75 239 2.0 5.0 0.00 0.02 0.00 92 1011.3
20260905064039 74 245 2.0 5.0 0.00 0.02 0.00 92 1011.5
20260905063538 74 248 2.0 4.0 0.00 0.02 0.00 92 1011.7
20260905063038 74 284 1.0 4.0 0.00 0.02 0.00 93 1011.4
20260905062537 74 273 0.0 4.0 0.00 0.02 0.00 93 1011.4
20260905062037 74 248 1.0 4.0 0.00 0.02 0.00 93 1011.3
20260905061539 74 250 1.0 4.0 0.00 0.02 0.00 93 1011.3
20260905061036 74 263 0.0 3.0 0.00 0.02 0.00 92 1011.4
20260905060534 75 263 1.0 3.0 0.00 0.02 0.00 92 1011.5
20260905060035 75 232 0.0 3.0 0.00 0.02 0.00 92 1011.7
20260905055536 75 259 0.0 2.0 0.00 0.02 0.00 92 1011.9
20260905055034 75 262 0.0 3.0 0.00 0.02 0.00 92 1011.9
20260905054535 75 257 1.0 3.0 0.00 0.02 0.00 92 1011.9
20260905054033 75 252 0.0 4.0 0.00 0.02 0.00 92 1012.0
20260905053535 75 264 0.0 5.0 0.00 0.02 0.00 93 1012.1
20260905053034 75 248 1.0 5.0 0.00 0.02 0.00 94 1012.2
20260905052535 75 248 2.0 5.0 0.00 0.02 0.00 94 1012.2
20260905052035 75 255 1.0 3.0 0.00 0.02 0.00 94 1012.1
20260905051537 75 257 0.0 1.0 0.00 0.02 0.00 94 1012.0
20260905051031 75 257 0.0 1.0 0.00 0.02 0.00 93 1011.8
20260905050531 75 257 0.0 1.0 0.00 0.02 0.00 93 1011.7
20260905050031 75 257 0.0 2.0 0.00 0.02 0.00 93 1011.7
20260905045529 75 257 0.0 2.0 0.00 0.02 0.00 92 1011.7
20260905045032 75 257 0.0 2.0 0.00 0.02 0.00 92 1011.7
20260905044529 75 257 0.0 2.0 0.00 0.02 0.00 92 1011.6
20260905044032 76 257 0.0 3.0 0.00 0.02 0.00 91 1011.6
20260905043527 76 261 1.0 3.0 0.00 0.02 0.00 90 1011.7
20260905043026 76 248 0.0 4.0 0.00 0.02 0.00 90 1011.9
20260905042528 76 248 0.0 4.0 0.00 0.02 0.00 90 1011.9
20260905042026 76 279 0.0 2.0 0.00 0.02 0.00 90 1012.0
20260905041525 76 130 0.0 2.0 0.00 0.02 0.00 90 1012.1
20260905041023 76 275 0.0 1.0 0.00 0.02 0.00 90 1012.6
20260905040522 76 275 0.0 1.0 0.00 0.02 0.00 90 1012.9
20260905040023 76 90 0.0 1.0 0.00 0.02 0.02 89 1012.8
20260905035521 76 247 0.0 0.0 0.00 0.02 0.02 89 1013.1
20260905035020 77 248 0.0 1.0 0.00 0.02 0.02 88 1013.6
20260905034528 77 248 0.0 2.0 0.00 0.02 0.02 88 1014.1
20260905034021 77 248 0.0 3.0 0.00 0.02 0.02 87 1014.4
20260905033521 77 13 0.0 2.0 0.00 0.02 0.02 87 1014.6
20260905033023 78 4 0.0 5.0 0.00 0.02 0.02 87 1014.9
20260905032520 78 70 0.0 6.0 0.00 0.02 0.02 87 1014.9
20260905032019 78 66 0.0 6.0 0.00 0.02 0.02 87 1015.1
20260905031531 78 57 2.0 9.0 0.00 0.02 0.02 87 1015.2
20260905031018 78 47 3.0 12.0 0.00 0.02 0.02 87 1015.4
20260905030618 79 331 3.0 12.0 0.00 0.02 0.02 87 1015.6
20260905030026 79 30 3.0 9.0 0.00 0.02 0.02 90 1015.6
20260905025518 80 37 0.0 8.0 0.00 0.02 0.02 95 1015.6
20260905025017 80 22 0.0 6.0 0.00 0.02 0.02 96 1015.5
20260905024518 80 203 1.0 7.0 0.00 0.02 0.02 96 1015.4
20260905024018 80 32 1.0 7.0 0.00 0.02 0.02 96 1015.5
20260905023517 79 8 2.0 5.0 0.00 0.02 0.02 96 1015.4
20260905023028 79 245 0.0 2.0 0.00 0.02 0.02 96 1014.8
20260905022517 79 240 0.0 2.0 0.00 0.02 0.02 96 1014.9
20260905022017 79 248 0.0 1.0 0.00 0.02 0.02 96 1014.9
20260905021518 79 248 0.0 1.0 0.00 0.02 0.02 95 1015.0
20260905021017 80 247 0.0 1.0 0.00 0.02 0.02 95 1015.1
20260905020516 80 247 0.0 1.0 0.00 0.02 0.02 95 1015.0
20260905020016 80 248 0.0 1.0 0.00 0.02 0.02 95 1014.9
20260905015516 80 248 0.0 1.0 0.00 0.02 0.02 95 1014.9
20260905015019 80 248 0.0 1.0 0.00 0.02 0.02 95 1015.0
20260905014517 80 248 0.0 3.0 0.00 0.02 0.02 95 1014.9
20260905014016 80 245 0.0 6.0 0.00 0.02 0.02 95 1014.9
20260905013515 80 243 1.0 4.0 0.00 0.02 0.02 96 1014.6
20260905013017 80 237 0.0 4.0 0.00 0.02 0.02 96 1014.4
20260905012516 80 237 0.0 4.0 0.00 0.02 0.02 96 1014.4
20260905012016 80 243 0.0 4.0 0.00 0.02 0.02 96 1014.3
20260905011516 80 241 0.0 4.0 0.00 0.02 0.02 96 1014.2
20260905011018 80 264 0.0 3.0 0.00 0.02 0.02 96 1014.0
20260905010516 80 241 0.0 2.0 0.00 0.02 0.02 96 1013.7
20260905010017 80 241 0.0 2.0 0.00 0.02 0.02 96 1013.9
20260905005518 80 223 0.0 2.0 0.00 0.02 0.02 96 1013.8
20260905005015 80 223 0.0 3.0 0.00 0.02 0.02 96 1013.7
20260905004517 80 223 1.0 3.0 0.00 0.02 0.02 96 1013.8
20260905004014 80 153 0.0 3.0 0.01 0.02 0.02 95 1013.9
20260905003515 80 182 0.0 3.0 0.01 0.02 0.02 95 1013.8
20260905003014 80 243 0.0 1.0 0.01 0.02 0.02 94 1013.7
20260905002513 80 243 0.0 1.0 0.01 0.02 0.02 94 1013.7
20260905002013 80 243 0.0 0.0 0.01 0.02 0.02 94 1013.7
20260905001513 80 243 0.0 1.0 0.01 0.02 0.02 93 1013.6
20260905001013 80 243 0.0 1.0 0.01 0.02 0.02 93 1013.4
20260905000513 81 243 0.0 2.0 0.01 0.02 0.02 93 1013.3
20260905000014 81 241 0.0 2.0 0.01 0.03 0.02 92 1013.1
20260904235615 81 244 0.0 3.0 0.01 0.03 0.02 92 1013.2
20260904235014 81 243 1.0 3.0 0.01 0.03 0.02 91 1013.2
20260904234511 81 233 0.0 1.0 0.01 0.03 0.02 91 1013.3
20260904234015 81 233 0.0 2.0 0.00 0.02 0.01 90 1013.3
20260904233513 82 233 0.0 4.0 0.00 0.02 0.01 89 1013.3
20260904233012 82 233 0.0 5.0 0.00 0.02 0.01 88 1013.1
20260904232513 82 233 0.0 5.0 0.00 0.02 0.01 87 1013.2
20260904232012 82 241 0.0 3.0 0.00 0.02 0.01 87 1013.3
20260904231516 83 242 1.0 2.0 0.00 0.02 0.01 86 1013.3
20260904231012 83 241 0.0 4.0 0.00 0.02 0.01 85 1013.2
20260904230511 83 241 0.0 4.0 0.00 0.02 0.01 85 1013.2
20260904230011 84 246 0.0 3.0 0.00 0.02 0.01 84 1013.2
20260904225510 84 239 1.0 3.0 0.00 0.02 0.01 83 1013.1
20260904225011 84 268 0.0 5.0 0.00 0.02 0.01 83 1013.1
20260904224511 85 238 1.0 5.0 0.00 0.02 0.01 83 1013.0
20260904224010 85 212 0.0 5.0 0.00 0.02 0.01 83 1013.1
20260904223510 85 262 1.0 5.0 0.00 0.02 0.01 82 1013.1
20260904223010 86 243 0.0 6.0 0.00 0.02 0.01 82 1013.0
20260904222511 86 210 0.0 7.0 0.00 0.02 0.01 82 1013.0
20260904222011 86 189 1.0 8.0 0.00 0.02 0.01 81 1012.9
20260904221511 87 236 2.0 11.0 0.00 0.02 0.01 80 1012.9
20260904221011 87 231 3.0 11.0 0.00 0.02 0.01 79 1012.9
20260904220511 87 268 3.0 10.0 0.00 0.02 0.01 79 1012.9
20260904220011 87 265 2.0 11.0 0.00 0.02 0.01 79 1013.0
20260904215510 88 197 2.0 11.0 0.00 0.02 0.01 79 1013.0
20260904215011 88 262 2.0 9.0 0.00 0.02 0.01 79 1013.0
20260904214530 88 255 2.0 8.0 0.00 0.02 0.01 78 1013.0
20260904214012 88 269 3.0 8.0 0.00 0.02 0.01 78 1013.1
20260904213510 89 247 3.0 7.0 0.00 0.02 0.01 78 1013.3
20260904213010 89 226 3.0 9.0 0.00 0.02 0.01 77 1013.1
20260904212515 89 224 3.0 9.0 0.00 0.02 0.01 77 1013.1
20260904212021 89 186 3.0 9.0 0.00 0.02 0.01 78 1012.9
20260904211516 89 260 3.0 13.0 0.00 0.02 0.01 77 1012.8
20260904211014 89 260 3.0 8.0 0.00 0.02 0.01 78 1012.7
20260904210514 89 142 3.0 12.0 0.00 0.02 0.01 79 1012.7
20260904210014 89 268 5.0 14.0 0.00 0.02 0.01 78 1012.6
20260904205513 89 186 3.0 14.0 0.00 0.02 0.01 78 1012.7
20260904205012 89 161 4.0 9.0 0.00 0.02 0.01 78 1012.8
20260904204511 89 244 2.0 11.0 0.00 0.02 0.01 78 1012.9
20260904204011 90 250 2.0 11.0 0.00 0.02 0.01 78 1012.8
20260904203511 89 258 2.0 8.0 0.00 0.02 0.01 79 1012.9
20260904203010 89 233 4.0 9.0 0.00 0.02 0.01 77 1013.1
20260904202505 89 250 4.0 9.0 0.00 0.02 0.01 78 1013.1
20260904202007 89 255 3.0 11.0 0.00 0.02 0.01 78 1013.2
20260904201503 89 277 3.0 11.0 0.00 0.02 0.01 78 1013.4
20260904201003 90 224 2.0 8.0 0.00 0.02 0.01 79 1013.5
20260904200501 90 255 4.0 9.0 0.00 0.02 0.01 78 1013.6
20260904195559 89 221 3.0 12.0 0.00 0.02 0.01 78 1013.8
20260904195058 90 197 4.0 12.0 0.00 0.02 0.01 77 1014.1
20260904194603 90 260 3.0 9.0 0.00 0.02 0.01 79 1014.0
20260904194057 90 250 3.0 13.0 0.00 0.02 0.01 78 1014.1
20260904193557 90 246 4.0 9.0 0.00 0.02 0.01 78 1014.2
20260904193056 90 285 3.0 9.0 0.00 0.02 0.01 77 1014.3
20260904192055 90 204 2.0 11.0 0.00 0.02 0.01 79 1014.5
20260904191555 90 261 2.0 7.0 0.00 0.02 0.01 78 1014.5
20260904191054 90 149 3.0 7.0 0.00 0.02 0.01 77 1014.6
20260904190554 90 278 2.0 8.0 0.00 0.02 0.01 78 1014.6
20260904190056 90 286 3.0 9.0 0.00 0.02 0.01 77 1014.7
20260904185552 90 224 3.0 10.0 0.00 0.02 0.01 78 1014.6
20260904185051 90 216 4.0 9.0 0.00 0.02 0.01 77 1014.6
20260904184603 90 231 1.0 9.0 0.00 0.02 0.01 78 1014.7
20260904184051 91 246 4.0 9.0 0.00 0.02 0.01 76 1014.8
20260904183550 91 221 2.0 8.0 0.00 0.02 0.01 75 1014.8
20260904183050 91 283 1.0 10.0 0.00 0.02 0.01 77 1015.0
20260904182049 91 160 0.0 8.0 0.00 0.02 0.01 77 1015.1
20260904181550 90 212 3.0 8.0 0.00 0.02 0.01 76 1015.1
20260904181047 91 271 3.0 7.0 0.00 0.02 0.01 76 1015.1
20260904180547 91 265 3.0 11.0 0.00 0.02 0.01 76 1015.3
20260904180100 91 195 2.0 11.0 0.00 0.02 0.01 76 1015.3
20260904175546 91 233 2.0 7.0 0.00 0.02 0.01 76 1015.3
20260904175046 91 263 4.0 11.0 0.00 0.02 0.01 75 1015.4
20260904174547 91 238 2.0 11.0 0.00 0.02 0.01 76 1015.4
20260904174145 90 245 3.0 8.0 0.00 0.02 0.01 77 1015.4
20260904173543 90 215 3.0 8.0 0.00 0.02 0.01 77 1015.4
20260904173049 90 219 2.0 11.0 0.00 0.02 0.01 80 1015.4
20260904172044 90 259 4.0 11.0 0.00 0.02 0.01 78 1015.6
20260904171547 90 227 3.0 8.0 0.00 0.02 0.01 78 1015.6
20260904171043 90 120 3.0 9.0 0.00 0.02 0.01 78 1015.6
20260904170541 90 227 3.0 9.0 0.00 0.02 0.01 78 1015.7
20260904170041 90 220 3.0 8.0 0.00 0.02 0.01 78 1015.6
20260904165541 90 101 2.0 11.0 0.00 0.02 0.01 78 1015.6
20260904165043 89 259 2.0 16.0 0.00 0.02 0.01 80 1015.7
20260904164540 89 256 2.0 16.0 0.00 0.02 0.01 82 1015.7
20260904164043 89 236 4.0 13.0 0.00 0.02 0.01 80 1015.7
20260904163540 89 268 3.0 10.0 0.00 0.02 0.01 78 1015.8
20260904163040 89 281 3.0 9.0 0.00 0.02 0.01 80 1015.8
20260904162038 89 262 5.0 9.0 0.00 0.02 0.01 80 1016.0
20260904161538 89 223 4.0 9.0 0.00 0.02 0.01 81 1016.0